Airfield :
LOGIN :

Register | Disclaimer

   EN    FR    IT 

 










Legend :    VFR   Marginal VFR   IFR   Intensive IFR   Very Intensive IFR
Visi :
Ceiling :
>= 8 km
>= 3000ft
5 to 8 km
1000 to 3000 ft
1500m to 5 km
500 to 1000 ft
800 to 1500m
200 to 500 ft
< 800m
< 200 ft
Symbols :   Thunderstorms  Fog  Heavy snow  Heavy precipitations  Wind > 20 kt
SIGMETs :     Misc.  Thunderstorms  Icing  Turbulence  Mountain Waves  Volcanic Ashes







- Airport Elevation : 106 ft
- IATA code : XDA
- Download approach charts


LFBY - Dax Seyresse

CURRENT METAR :
  • 211200Z AUTO 09009KT 050V130 //// // ////// 29/12 Q1018

EXPIRED METARs :
  • 211130Z AUTO 09010KT 050V130 //// // ////// 29/12 Q1019
  • 211100Z AUTO 10011KT //// // ////// 27/11 Q1019
  • 211030Z AUTO 10010KT //// // ////// 26/13 Q1019
  • 211000Z AUTO 10009KT 070V130 //// // ////// 26/13 Q1020
  • 210930Z AUTO 11009KT 080V140 //// // ////// 24/13 Q1020

Expired Forecast.
No reported NOTAMs for that airfield.



MET'MAP, your aeronautical weather chart ! - Copyright ORBIFLY December 2007 - Disclaimer

ORBIFLY MET'MAP TEAM :

Programming & Development : Alexandra Zaïnal
Concept & Development : Baudouin d'Aumeries
Co-Development & Prog : Marc-Olivier Méhu
Technical & hardware support : Manuel Goepfert

Contact : metmap@orbifly.com




SOURCES & CREDITS :

   NOAA